Regional Weather Roundup
Issued by NWS Northern Indiana

Home | Current Version | Previous Version | Text Only | Print | Product List | Glossary On
Versions: 1 2 3 4 5 6 7 8 9 10 11 12 13 14 15 16 17 18 19 20 21 22 23 24 25 26 27 28 29 30 31 32 33 34 35 36 37 38 39 40 41 42 43 44 45 46 47 48 49 50
000
ASUS43 KIWX 171610
RWRIWX

KIWX WEATHER ROUNDUP
NATIONAL WEATHER SERVICE NORTHERN INDIANA
1200 PM EDT THU APR 17 2014

NOTE: "FAIR" INDICATES FEW OR NO CLOUDS BELOW 12,000 FEET WITH NO
SIGNIFICANT WEATHER AND/OR OBSTRUCTIONS TO VISIBILITY.

* THESE STATIONS ARE NOT UNDER NWS QUALITY CONTROL. THEY ALSO MAY NOT
  REPORT WEATHER SUCH AS PRECIPITATION OR FOG.

INZ001>027-171700-
NORTHERN INDIANA

CITY           SKY/WX    TMP DP  RH WIND       PRES   REMARKS
GARY*          MOSUNNY   55  30  38 SW17G29     N/A
VALPARAISO     SUNNY     56  30  37 SW18      30.21S
MICHIGAN CITY* SUNNY     57  28  33 SW16      30.21R
LAPORTE*       SUNNY     55  30  37 S14G29    30.21F
SOUTH BEND     MOSUNNY   58  28  32 S18       30.22F
GOSHEN         SUNNY     57  30  35 S18       30.24S
MONTICELLO*    SUNNY     58  33  37 SW14      30.24S
LOGANSPORT*    SUNNY     59  30  33 SW12      30.26S
ROCHESTER*     SUNNY     59  30  33 S16       30.26S
WARSAW*        SUNNY     55  30  38 SW9       30.25S
ANGOLA*        SUNNY     54  32  43 S9        30.27R
FORT WAYNE     MOSUNNY   62  31  31 S17G23    30.28S
HUNTINGTON*    FAIR      58  29  33 SW13G20   30.27S
PERU/GRISSOM   SUNNY     60  31  34 SW16      30.25F
MARION*        SUNNY     58  29  33 SW18      30.28S

$$
INZ028>050-171700-
CENTRAL INDIANA

CITY           SKY/WX    TMP DP  RH WIND       PRES   REMARKS
LAFAYETTE      SUNNY     59  31  34 SW10      30.25R
KOKOMO*        SUNNY     59  34  38 SW16G24   30.26F
MUNCIE*        SUNNY     60  32  34 SW12      30.29R
INDIANAPOLIS   PTSUNNY   59  31  34 SW15      30.29F

$$
MIZ043>046-050>051-056>058-064>065-071>073-077>080-171700-
SOUTHWEST LOWER MICHIGAN

CITY           SKY/WX    TMP DP  RH WIND       PRES   REMARKS
BATTLE CREEK   MOSUNNY   54  28  36 S16G23    30.24F
BENTON HARBOR  MOSUNNY   55  29  36 S13G22    30.20S
COLDWATER*     SUNNY     55  27  34 SW8G17    30.25F
HILLSDALE*     SUNNY     52  28  39 SE9       30.28R
HOLLAND        CLOUDY    55  31  39 S16G24    30.21R
GRAND RAPIDS   PTSUNNY   55  30  38 S13G22    30.22F
KALAMAZOO      SUNNY     56  28  34 S14G24    30.23F
STURGIS*       SUNNY     55  30  38 S15G21    30.24S
THREE RIVERS*  FAIR      56  28  34 S12       30.24S

$$
OHZ001>008-015>018-024>025-171700-
NORTHWEST OHIO

CITY           SKY/WX    TMP DP  RH WIND       PRES   REMARKS
WAUSEON*       FAIR      54  32  43 S8        30.30F
DEFIANCE       SUNNY     57  32  38 S9G17     30.30F
FINDLAY        SUNNY     57  34  41 S13       30.32S
TOLEDO EXPRESS SUNNY     55  30  38 SW10      30.31F
TOLEDO METCALF SUNNY     56  31  38 S13       30.33F
LIMA           SUNNY     58  34  40 S10       30.31F

$$
&&



USA.gov is the U.S. government's official web portal to all federal, state and local government web resources and services.